Location: St. Malo Provincial Park
(49.3214°N, 96.9305°W)
Time: 17:25:15
(UTC-05:00)

Daily predictions for brighter satellites

Satellite Brightness Start Highest point End
(mag) Time Altitude Azimuth Time Altitude Azimuth Time Altitude Azimuth
Meteor 1-20 Rocket 4.4 21:02:37 10° SSW 21:08:09 78° WNW 21:13:40 10° N
ATLAS 2AS CENTAUR R/B 3.8 21:02:15 10° SSE 21:08:28 27° ESE 21:14:55 10° NE
Cosmos 1850 Rocket 4.2 21:03:44 10° NNW 21:09:05 64° ENE 21:14:21 10° SE
Cosmos 1452 Rocket 3.5 21:05:36 10° S 21:10:50 65° ESE 21:16:05 10° NNE
YAOGAN 6 3.0 21:10:06 10° SE 21:13:29 44° ENE 21:16:51 10° N
Cosmos 1420 Rocket 4.2 21:09:06 10° S 21:14:05 49° ESE 21:19:05 10° NNE
NOSS 3-1 (A) 3.5 21:08:49 10° SW 21:14:43 88° SE 21:21:29 10° NE
S3M 4.0 21:10:54 10° N 21:17:11 82° E 21:23:32 10° S
Helios 1B rocket 3.5 21:14:09 10° NE 21:17:38 26° E 21:21:04 10° SSE
Cosmos 839 Rocket 4.0 21:12:03 10° SSW 21:18:09 62° ESE 21:24:26 10° NE
Cosmos 921 Rocket 3.4 21:14:51 10° SSW 21:19:01 67° WNW 21:23:12 10° NNE
CENTAUR R/B 4.5 21:13:27 10° NW 21:19:30 28° N 21:26:09 10° ENE
Cosmos 1553 Rocket 4.0 21:13:26 10° N 21:19:40 89° W 21:25:46 10° S
Cosmos 1607 4.1 21:13:31 10° NW 21:19:59 72° NE 21:26:27 10° SE
Okean 1 Rocket 4.0 21:17:28 10° SSE 21:21:08 27° E 21:24:51 10° NNE
Tiangong 1 2.6 21:22:20 10° WSW 21:24:27 19° S 21:26:22 11° SE
Resurs 01 Rocket 2.8 21:20:38 10° S 21:24:55 46° W 21:29:14 10° NNW
Cosmos 1300 Rocket 3.9 21:21:48 10° SSE 21:25:51 42° E 21:29:57 10° NNE
Cosmos 2360 Rocket 3.3 21:23:52 10° SSE 21:28:01 22° E 21:32:11 10° NE
Cosmos 1980 Rocket 2.6 21:23:08 10° SW 21:28:44 68° WNW 21:34:20 10° NNE
Cosmos 1025 Rocket 3.8 21:25:21 10° N 21:29:16 34° ENE 21:32:56 11° SE
Cosmos 2266 Rocket 4.2 21:24:28 10° SSE 21:30:14 49° E 21:36:01 10° NNE
BREEZE-M DEB (TANK) 2.5 21:28:35 10° SW 21:31:10 24° SSE 21:32:23 15° ESE
Cosmos 220 Rocket 4.3 21:27:42 10° NNW 21:31:55 53° ENE 21:35:52 12° SE
SeaSat 1 2.5 21:27:06 10° NE 21:32:01 62° ESE 21:36:53 10° SSW
Cosmos 2151 Rocket 3.6 21:33:22 10° S 21:37:45 85° W 21:42:12 10° N
Meteor 2-4 Rocket 3.7 21:32:52 10° NNW 21:38:25 89° ENE 21:44:06 10° S
SPOT 5 3.8 21:35:22 12° ESE 21:39:06 30° ENE 21:43:08 10° N
PEGASUS R/B 4.4 21:38:27 10° NNE 21:41:27 84° WNW 21:46:32 10° SSW
Lacrosse 5 2.8 21:38:56 10° S 21:43:01 25° SE 21:47:07 10° ENE
BREEZE-M DEB 4.0 21:30:13 10° W 21:43:39 90° WSW 21:46:59 13° E
NOSS 3-1 (C) 4.3 21:38:16 10° WSW 21:44:08 55° NW 21:50:51 10° NE
Cosmos 1697 Rocket 4.5 21:39:18 10° WSW 21:44:29 36° NW 21:49:42 10° NNE
NOAA 11 4.3 21:41:25 10° SSE 21:46:52 67° ENE 21:52:21 10° N
CZ-4B DEB 2.4 21:48:18 15° SSE 21:50:37 76° ENE 21:53:30 10° N
USA 245 4.3 21:47:46 15° SE 21:51:36 40° ENE 21:55:32 10° N
USA 215 4.2 21:45:50 10° ENE 21:52:02 47° N 21:58:15 10° WNW
NOSS 2-3 (C) 4.1 21:47:32 10° SSW 21:52:08 49° ESE 21:57:33 10° NE
Okean 2 3.7 21:49:33 10° N 21:53:33 49° ENE 21:56:26 17° SSE
ERBS 2.6 21:50:09 10° WSW 21:53:37 72° NNW 21:57:06 10° NE
Atlas Centaur 2 4.4 21:49:46 10° SW 21:54:13 16° S 21:58:01 11° SSE
Meteor 1-29 3.1 21:54:35 10° NNE 21:57:56 50° E 22:00:59 12° S
NOSS 3-2 (A) 4.5 21:52:53 10° NW 21:59:52 51° NE 22:06:18 15° ESE
USA 238 DEB 3.9 21:53:56 10° NW 22:01:01 72° NE 22:06:31 18° SE
USA 238 3.9 21:54:02 10° NW 22:01:08 71° NE 22:06:37 18° SE
Helios 1A 3.6 21:59:01 10° S 22:03:11 58° WSW 22:07:24 10° NNW
SAR-Lupe-4 3.5 22:02:02 17° SSE 22:04:45 88° E 22:08:23 10° NNW
Cosmos 1892 Rocket 4.1 22:05:49 10° N 22:10:02 41° ENE 22:12:13 24° SE
ERS-1 Rocket 3.0 22:06:24 13° SSE 22:10:51 87° WSW 22:15:55 10° NNW
MetOp-A 4.1 22:06:28 14° SSE 22:11:04 84° ENE 22:16:28 10° NNW
H-2A R/B 2.3 22:10:30 21° SE 22:13:38 51° ENE 22:18:27 10° N
Abrixas rocket 2.1 22:15:02 10° W 22:18:19 76° S 22:19:36 34° ESE
ATLAS 3B R/B 2.6 22:14:08 10° NW 22:20:59 86° SW 22:25:21 23° SE
SAR-Lupe-1 4.2 22:19:30 21° S 22:21:45 70° WSW 22:25:21 10° NNW
EXPRESS MD2 3.3 22:18:47 10° WSW 22:21:55 70° SSE 22:28:01 10° ENE
Cosmos 1743 4.3 22:23:01 19° E 22:23:01 19° E 22:25:30 10° NE
Cosmos 1975 3.5 22:23:15 30° ESE 22:24:10 34° E 22:27:48 10° NNE
SL-8 R/B 3.8 22:20:18 10° W 22:25:03 63° SSW 22:27:23 29° SE
SL-08 RB Rocket 3.6 22:23:35 25° SSE 22:26:16 76° ENE 22:30:49 10° N
Cosmos 1544 Rocket 4.2 22:28:18 30° SE 22:29:33 36° E 22:33:39 10° NNE
Cosmos 405 3.5 22:29:33 37° ESE 22:29:57 39° E 22:33:20 10° NNE
Terra 2.7 22:29:05 25° ESE 22:30:55 35° ENE 22:35:14 10° N
ARGOS 3.2 22:27:17 19° SSE 22:31:11 82° WSW 22:36:36 10° NNW
NOSS 2-3 (D) 3.9 22:27:02 10° SW 22:31:50 87° SE 22:37:39 10° NE
Cosmos 2278 Rocket 3.4 22:27:10 10° NNW 22:32:10 30° NE 22:35:15 19° E
Cosmos 2263 Rocket 3.4 22:27:30 10° NW 22:32:42 37° WSW 22:37:35 11° S
Cosmos 1486 Rocket 4.0 22:28:56 10° NNW 22:34:13 72° ENE 22:36:48 30° SE
Cosmos 2322 Rocket 2.9 22:31:59 10° SW 22:37:36 57° WNW 22:43:14 10° NNE
Cosmos 1302 Rocket 4.4 22:35:30 28° SSE 22:37:39 42° ESE 22:42:36 10° NE
NOSS 3-2 (C) 4.2 22:30:36 10° NW 22:37:47 60° NE 22:42:56 23° ESE
Cosmos 2237 4.4 22:34:51 19° S 22:38:37 47° ESE 22:44:03 10° NE
Cosmos 1844 Rocket 2.8 22:35:15 10° NNW 22:40:57 69° ENE 22:43:39 32° SE
Cosmos 1515 4.1 22:37:13 10° NNW 22:40:59 58° W 22:42:55 26° SSW
Cosmos 1455 Rocket 3.5 22:41:15 37° SE 22:42:12 42° E 22:46:26 10° NNE
ATLAS CENTAUR R/B 3.8 22:41:45 10° N 22:43:07 12° NNE 22:44:28 10° NE
Nadezhda 1 Rocket 4.2 22:39:05 10° N 22:45:16 55° ENE 22:48:14 31° SE
Cosmos 1110 Rocket 3.9 22:40:50 10° SSW 22:46:00 89° ESE 22:51:15 10° NNE
SL-16 R/B 3.2 22:42:57 10° SW 22:48:26 49° NW 22:53:58 10° NNE
Cosmos 1244 Rocket 4.4 22:44:33 14° S 22:49:56 89° E 22:56:07 10° N
Helios 1B rocket 4.1 22:49:16 10° N 22:52:59 34° WNW 22:56:43 10° SW
IGS 5A 3.8 22:55:06 44° ESE 22:55:52 51° ENE 22:59:56 10° N
DMSP B5D2-2 4.2 22:51:04 10° NNE 22:56:13 52° E 22:57:49 38° SSE
Cosmos 1238 Rocket 4.2 22:49:32 10° NNW 22:56:19 78° W 23:00:28 24° S
Cosmos 2322 3.6 22:51:52 10° SSW 22:57:32 80° ESE 23:03:14 10° NNE
Cosmos 2219 Rocket 3.0 22:57:51 30° ESE 22:57:51 30° ESE 23:02:44 10° NE
ATLAS 2AS CENTAUR R/B 3.1 22:50:47 10° SW 22:58:38 89° NW 23:06:52 10° NE
COSMOS 2455 4.4 22:53:40 10° NNW 22:58:41 26° NNE 23:02:47 14° E
Cosmos 1500 3.5 22:59:13 32° SSW 23:00:53 67° W 23:04:47 10° N
Cosmos 1331 Rocket 4.0 22:55:49 10° SSW 23:01:01 79° WNW 23:06:18 10° NNE
Molniya-1 4.0 23:00:41 10° NW 23:03:06 59° WSW 23:03:06 59° WSW
COSMOS 2428 2.8 23:04:15 35° S 23:06:22 55° ESE 23:11:58 10° NE
NOSS 3-4 (A) 4.4 23:10:01 29° ESE 23:10:01 29° ESE 23:14:47 10° ENE
NOSS 3-4 (C) 4.4 23:10:10 29° ESE 23:10:10 29° ESE 23:14:52 10° ENE
BREEZE-M DEB (TANK) 3.9 23:05:27 10° WSW 23:09:46 82° SSE 23:27:57 10° E
Cosmos 1354 Rocket 4.0 23:04:52 10° NNW 23:10:14 77° ENE 23:11:50 46° SE
SL-08 R/B 4.4 23:07:03 27° S 23:10:48 85° E 23:17:09 10° N
Cosmos 2360 Rocket 2.4 23:05:50 10° SW 23:11:27 71° WNW 23:17:07 10° NNE
Cosmos 1437 Rocket 2.9 23:12:13 56° E 23:12:13 56° E 23:15:56 10° NNE
CENTAUR R/B 3.7 23:04:46 10° NW 23:12:03 49° NE 23:17:28 21° E
Cosmos 1844 3.6 23:07:20 10° NNW 23:13:03 90° ESE 23:14:57 44° SSE
CARTOSAT-1 3.4 23:13:35 61° SSE 23:14:19 83° ENE 23:18:41 10° NNW
SPOT 1/Viking Rocket 4.0 23:12:34 30° SSW 23:15:00 55° W 23:20:10 10° NNW
Cosmos 1818 3.7 23:15:58 47° SE 23:16:11 47° ESE 23:21:24 10° NE
SPOT 5 3.9 23:14:37 23° SSW 23:17:04 39° W 23:21:28 10° NNW
CZ-2C R/B 4.4 23:16:29 21° ENE 23:17:23 22° ENE 23:21:06 10° N
Cosmos 2333 Rocket 2.8 23:20:17 36° E 23:20:17 36° E 23:25:09 10° NE
Cosmos 1602 Rocket 3.4 23:17:52 10° N 23:22:14 74° E 23:22:34 69° ESE
USA 81 4.3 23:19:49 10° N 23:24:59 51° E 23:25:48 46° ESE
Lacrosse 5 1.8 23:20:27 10° WSW 23:25:32 83° NNW 23:30:39 10° NE
H-2A R/B 2.1 23:27:11 61° E 23:27:27 62° ENE 23:31:49 10° N
Timation 1 Rocket 4.4 23:21:26 10° NNW 23:27:27 72° ENE 23:29:13 47° SE
Cosmos 2333 4.1 23:26:46 41° S 23:28:44 73° ESE 23:34:22 10° NNE
Nimbus 7 Rocket 4.4 23:23:24 10° NNE 23:29:17 80° WNW 23:32:37 27° SSW
Cosmos 1503 Rocket 4.1 23:27:15 10° NNW 23:32:38 73° WSW 23:33:53 52° S
USA 215 3.9 23:28:28 11° E 23:34:26 51° NNE 23:40:44 10° WNW
Cosmos 2237 Rocket 2.9 23:42:17 35° E 23:42:17 35° E 23:46:38 10° NE
Cosmos 1842 3.4 23:38:21 10° N 23:41:57 73° NNW 23:41:57 73° NNW
ARGOS Delta rocket 3.6 23:38:13 10° NNE 23:42:45 74° E 23:42:50 74° ESE
deb Chang Zheng 4 4.4 23:39:11 10° NNE 23:42:32 40° ENE 23:42:32 40° ENE
Cosmos 1745 Rocket 4.1 23:40:34 32° SSW 23:43:34 70° WNW 23:49:44 10° N
DNEPR-1 R/B 4.4 23:39:44 10° NNW 23:43:52 42° NE 23:44:36 39° ENE
Cosmos 1666 3.0 23:46:46 65° NW 23:46:46 65° NW 23:50:20 10° N
Cosmos 1626 Rocket 3.8 23:42:34 10° NNW 23:46:49 58° W 23:47:04 57° WSW
Cosmos 1980 4.2 23:47:54 43° E 23:47:54 43° E 23:52:47 10° NE
BREEZE-M DEB (TANK) 3.9 23:31:13 10° WSW 23:49:23 77° SSE 23:52:19 27° E
Meteor 1-4 Rocket 4.1 23:52:22 31° NE 23:52:22 31° NE 23:54:36 10° NNE
NOSS 3-2 (A) 4.2 23:43:49 10° NW 23:51:05 58° WSW 23:53:41 41° S
H-2A R/B 3.7 23:51:09 19° SW 23:53:19 25° W 23:57:25 10° NW
